Location: *
(50.3440°N, 18.6237°E)
Time: 18:02:31
(UTC+00:00)

Cosmos 1470 Rocket - Pass Details

Date: 30 November 2020
Orbit: 604 x 633 km, 82.5° (Epoch: 17 January)

Event Time Altitude Azimuth Distance (km) Brightness Sun altitude
Rises 16:48:38 0° 346° (NNW) 2,877 7.0 -18.8°
Reaches altitude 10° 16:50:53 10° 343° (NNW) 1,966 6.2 -19.2°
Maximum altitude 16:55:09 60° 264° (W) 696 4.0 -19.8°
Drops below altitude 10° 16:59:24 10° 185° (S) 1,948 6.3 -20.5°
Sets 17:01:37 0° 182° (S) 2,848 7.1 -20.9°
